Showing default

USA 270, 41744

Orbit data source: Space-Track

USA 270, 41744 is a payload satellite owned by USAF AFSPC (US) in GEO that was launched on Fri, 19 Aug 2016 UTC via a DELTA 4M+(4,2) launch vehicle from the Air Force Eastern Test Range (AFETR). Payloads include a variety of satellites, spacecraft, and rockets equipped with specific instruments for various scientific and technological missions. These include communications satellites like Starlink; space stations such as the ISS; scientific satellites like the Hubble; Earth observation satellites from companies like Planet Labs, Umbra, and HawkEye 360; GPS; miniature CubeSats for education and research; and military/defense satellites.

Not visible in the next 10 days
USA 270 details
Identifier
41744, 2016-052A
Orbit
GEO
Last TLE update1 week ago
Origin
Flag of USUSAF AFSPC (US)
ManufacturerOATK SSG
MissionOperational Defense Classified
Bus & MotorGEOSTAR-1, AOCS
Mass500 kg wet, 500 kg dry
Launch date (UTC)
2016-08-19 (8 years ago)
Launch vehicle
DELTA 4M+(4,2)
Launch site
Air Force Eastern Test Range (AFETR)
Object type
Payload
Rocket body
Debris
Shape & HBRBox + 2 Pan, 5 m
Radar Cross Section7.621 m²

Expand to show TLE details & history

TLE from 1 week ago
0 USA 270
1 41744U 16052A   24354.83339962 -.00000341  00000-0  00000+0 0  9993
2 41744   2.7970  84.1486 0000519 288.5546 122.0556  1.00402205 22673
Epoch: 2024-12-19T20:00Z
Definitive object data (Epoch: 2024-12-19T20:00:05.727Z)
Latitude2.18137°
Longitude105.80596°
Altitude35,750.464 km
Speed3.076 km/s
True Right ascension08h 58m 56s
True Declination2° 10' 45"
Sunlit
Object was in daylight at TLE epoch
Visualization TLE readout
Latitude0.76988°
Longitude70.49086°
Altitude35,750.307 km
Speed3.076 km/s
Apparent Right ascension06h 24m 04s
Apparent Declination-4° 19' 59"
Sunlit
Object is in daylight
Visualization observer readout
Local Sidereal Time16:21:13
Azimuth314.022° NW
Elevation-44.912°
Doppler factor1
Orbital elements
Apogee altitude35,753.327 km
Perigee altitude35,748.954 km
Semi-major axis42,129.278 km
Eccentricity0.0000519
Inclination2.797°
RAAN84.1486°
Arg. of periapsis288.5546°
True anomaly122.06064°
Mean anomaly122.0556°
Eccentric anomaly122.05812°
Mean motion0.251 °/min
BSTARUnknown
Orbital period1434.28 mins
Loading historical data...
41744 neighbors
Authenticating...
Loading maneuver chart data...
Loading historical data...
Loading historical data...
Loading historical data...
Loading historical data...
Loading historical data...
Loading historical data...
Loading historical data...
Other satellites on launch #52 in the year 2016 (2016-08-19 UTC)

USA 270 Visibility forecast

Observer location: undefined°, undefined

USA 270 is not visible in the next 10 days
Span
Click to sort rows by Start time (UTC) header in descending order
Start Az.
Max El. time (UTC)
Max El. Az.
Max El.
End time (UTC)
End Az.
|